Wind_Speed
8 8 7 5 4 2 3 6 7 9 9 9 9 10 10 11 11 11 10 10 10 10 9 9 9 8 7 7 7 6 6 6 6 6 5 4 4 4 5 4 3 3 3 2 2 1 2 2 1
8 8 7 6 3 2 4 5 6 8 8 8 9 10 10 9 10 10 10 11 11 10 9 9 9 8 7 7 7 6 5 5 6 5 4 4 4 4 5 5 4 3 3 2 2 2 1 1 1
9 8 7 5 3 3 3 4 6 7 9 10 10 11 10 9 9 9 10 11 11 10 10 9 9 8 7 8 8 7 5 5 5 5 4 4 4 4 5 5 4 3 3 2 2 3 2 1 1
10 9 7 5 2 2 3 3 5 7 9 10 11 12 11 10 10 9 10 10 10 10 10 9 9 8 8 8 7 7 6 6 5 4 4 4 5 4 4 4 4 3 3 3 3 3 3 2 1
10 10 7 4 2 1 2 3 5 8 10 11 12 13 11 10 10 9 10 10 10 10 10 9 9 8 8 8 8 7 7 6 6 4 4 4 4 4 3 3 4 4 4 4 3 4 3 2 1
10 10 8 5 2 0 1 2 4 8 9 10 11 13 11 10 10 10 11 11 10 9 10 10 9 8 8 8 8 7 7 6 5 4 4 4 4 4 3 3 3 4 4 5 4 4 4 3 3
12 12 10 7 5 3 1 2 4 8 10 12 13 14 13 12 11 11 11 11 10 9 9 9 9 8 8 8 8 8 8 6 5 5 4 4 3 3 4 3 4 4 4 4 4 4 4 4 4
14 13 11 9 7 6 6 5 5 8 11 13 14 14 14 12 11 11 10 10 9 9 9 9 8 7 7 7 8 8 8 6 6 6 5 5 5 4 4 4 4 4 4 4 4 4 5 4 4
15 13 10 10 10 8 9 8 7 8 11 14 15 15 15 13 11 11 11 10 9 9 8 8 7 7 7 8 8 9 8 7 6 5 5 5 5 5 6 6 5 5 5 5 5 5 5 4 4
15 13 11 11 11 11 11 10 8 8 11 14 15 15 16 14 12 11 11 10 9 8 8 8 7 6 7 8 8 8 8 7 6 6 5 6 6 7 7 6 6 6 6 6 6 5 5 5 4
15 14 12 13 13 13 12 10 9 9 11 13 13 14 14 13 11 11 11 10 11 9 8 7 7 7 7 8 8 8 8 7 6 7 6 6 7 7 7 7 7 7 7 7 7 6 6 5 5
15 14 14 15 15 15 13 12 10 9 11 12 13 14 14 13 12 11 12 12 12 9 8 7 7 7 8 7 7 8 8 7 7 7 7 7 7 8 7 7 7 7 7 7 7 7 6 6 6
16 15 15 16 16 15 15 14 13 12 12 13 13 13 14 13 13 11 11 12 12 10 9 7 7 8 8 8 8 8 8 8 8 7 7 7 7 7 7 7 7 7 6 6 7 6 6 6 6
17 16 16 16 15 15 15 15 15 13 13 14 14 14 13 13 13 12 12 12 12 10 10 8 8 9 9 8 9 9 9 8 8 8 8 7 7 7 7 7 6 6 6 6 7 7 6 6 6
19 18 16 16 16 15 15 16 17 14 14 14 14 14 13 13 13 13 12 11 11 10 10 9 9 9 9 9 8 9 9 9 9 9 8 7 7 7 6 6 6 6 5 5 6 7 7 7 6
19 18 16 15 16 16 17 17 16 14 14 15 15 14 13 13 13 13 12 12 11 10 11 11 10 10 10 9 8 9 9 10 10 9 9 8 8 7 7 6 6 6 6 7 6 7 7 7 7
19 17 16 15 16 16 18 17 16 15 16 16 17 16 14 14 14 14 13 12 12 12 11 10 10 11 10 9 9 9 10 10 10 10 10 9 9 8 8 8 7 7 7 7 8 8 8 8 8
18 18 17 16 15 16 16 15 16 18 18 18 18 17 16 15 15 15 13 13 13 12 11 10 10 10 10 10 11 10 10 10 11 10 11 10 10 9 9 9 8 8 8 7 8 9 9 9 9
19 18 17 16 16 17 17 17 17 18 18 18 18 18 16 15 15 16 15 14 14 14 12 12 11 10 11 11 11 11 10 11 11 11 11 10 11 10 10 10 9 9 8 8 8 9 9 9 10
20 19 18 17 16 19 19 19 19 19 19 18 18 18 17 16 15 15 14 14 14 14 13 13 12 11 10 10 11 11 12 12 12 12 11 11 11 10 10 11 10 9 9 9 9 9 9 9 10
21 21 19 19 19 20 21 21 20 20 20 19 19 18 17 17 16 15 14 15 15 14 13 14 13 12 11 11 12 12 13 13 13 12 12 12 11 11 10 11 11 10 10 10 10 10 10 11 11
23 21 21 21 21 21 21 22 20 20 20 19 19 19 18 17 18 17 16 17 15 14 15 15 12 13 11 10 11 12 13 13 13 13 13 12 12 12 12 11 11 11 11 11 11 11 12 12 12
23 21 22 23 24 24 23 24 22 21 20 18 18 19 18 18 18 16 16 16 16 15 14 14 13 13 12 12 12 13 13 13 13 13 13 13 13 12 12 13 13 12 12 12 12 13 13 14 14
22 22 23 25 25 26 23 26 25 23 22 20 19 19 19 19 18 18 18 17 18 17 16 16 15 16 15 13 14 13 14 14 14 14 14 13 13 13 13 13 14 13 13 14 14 14 15 15 14
22 23 25 26 27 26 24 27 26 23 23 21 20 20 19 19 19 19 20 20 21 20 18 17 17 17 16 16 16 15 15 15 15 15 14 14 14 14 14 15 15 14 15 15 15 15 16 16 15
22 24 25 26 27 26 25 26 23 22 21 21 21 21 21 20 21 21 22 22 22 21 20 20 19 19 18 18 18 17 17 16 16 15 15 15 15 15 16 16 16 16 16 16 16 16 16 16 16
24 26 26 27 27 27 27 27 24 20 19 21 23 23 24 23 22 23 24 24 24 23 22 21 20 19 19 19 19 18 18 17 16 16 16 16 16 16 16 16 16 16 17 17 17 18 17 17 17
25 25 27 28 28 29 30 29 26 22 21 22 23 23 23 24 24 24 24 24 24 24 24 23 21 21 21 21 20 20 19 17 17 17 17 18 18 18 17 17 17 17 19 19 18 18 18 18 18
26 26 27 28 29 29 31 30 28 25 24 24 24 24 23 24 24 25 24 24 25 25 24 22 22 22 22 22 21 20 20 19 19 18 18 18 19 19 19 18 18 18 19 20 20 19 19 19 19
27 27 27 28 28 29 30 29 28 27 25 25 25 25 25 24 25 25 26 26 25 24 24 23 23 23 23 23 22 22 22 21 20 20 20 20 20 20 21 20 20 20 20 20 20 20 20 20 20
Wind_Direction
163 157 152 143 131 108 78 45 32 18 7 360 357 355 354 356 357 358 357 357 3 7 6 1 357 358 359 355 352 347 343 340 335 324 308 306 303 302 299 300 301 306 304 293 291 286 286 288 286
178 173 167 158 163 118 77 47 29 5 352 349 350 349 348 353 358 357 356 359 2 4 3 359 358 357 357 353 349 344 338 337 336 333 316 310 301 301 298 296 296 293 289 287 278 273 274 243 254
190 188 185 170 157 121 73 43 27 1 342 339 341 340 342 349 356 354 352 354 359 2 359 359 359 355 350 346 345 343 338 339 336 334 326 316 297 295 297 291 284 278 273 274 272 273 282 273 265
205 200 200 194 170 91 56 32 10 342 327 326 330 330 333 344 351 350 349 348 352 355 355 354 354 353 350 347 346 348 342 339 335 331 327 316 305 297 297 291 275 266 265 268 271 273 283 294 290
213 208 207 198 172 75 13 7 346 328 321 322 327 327 328 338 347 347 346 346 345 346 347 345 349 350 349 347 347 347 342 338 336 333 327 322 316 309 300 287 272 262 262 267 272 273 272 281 289
219 213 209 204 182 117 329 4 354 314 317 318 324 326 328 334 341 346 347 344 343 342 342 340 342 344 344 345 343 342 339 337 339 330 326 322 319 320 312 298 273 264 265 266 265 261 259 260 266
223 221 218 204 189 204 249 290 305 307 313 314 315 318 323 329 338 340 344 343 343 340 336 335 339 342 342 342 342 339 336 336 332 322 318 317 309 306 312 309 291 275 267 263 259 252 252 253 252
223 221 217 209 202 214 226 241 275 294 307 308 307 312 320 322 331 336 341 342 339 335 333 333 335 336 338 338 339 340 337 331 326 313 300 302 301 301 303 299 289 281 270 264 260 257 256 255 250
230 225 215 220 218 220 228 237 264 282 296 300 304 308 312 317 328 333 335 334 331 330 334 337 335 333 334 336 337 337 334 331 325 317 304 294 295 300 301 295 293 286 271 270 266 259 258 260 257
234 230 221 224 220 221 231 239 253 269 286 295 302 304 305 313 324 329 330 328 325 328 333 337 334 331 331 336 338 339 339 335 329 325 305 291 289 292 295 292 290 285 276 274 273 269 267 265 261
238 233 225 226 223 226 236 241 248 262 279 290 299 302 306 312 321 326 328 323 321 321 328 332 331 329 329 335 337 340 340 332 327 322 308 292 288 288 291 286 284 280 277 271 268 266 261 263 267
240 239 232 228 231 229 236 242 248 260 274 279 285 293 298 304 312 321 325 326 327 322 328 327 323 326 328 334 335 336 336 331 326 320 314 304 293 287 289 282 281 278 274 270 265 263 258 260 266
240 240 238 236 233 233 237 245 253 256 266 271 278 286 290 299 306 313 316 320 327 324 320 320 319 319 322 324 327 326 326 329 327 321 319 313 302 294 292 288 283 282 272 262 257 257 261 263 269
239 239 241 244 239 236 237 243 249 254 261 269 273 279 283 290 298 304 310 316 320 320 312 308 311 314 316 316 316 318 321 324 328 321 314 311 306 300 293 288 286 286 275 259 256 258 262 268 271
240 241 240 244 246 243 243 244 249 253 258 266 270 275 281 288 295 299 303 306 308 305 303 298 299 305 307 307 308 312 315 316 320 318 311 309 303 300 297 293 283 274 264 259 255 256 257 261 268
242 242 241 241 245 244 245 244 246 250 258 264 267 273 279 287 293 297 298 300 302 300 301 298 298 303 306 307 305 306 309 311 315 317 311 306 299 297 295 288 282 276 264 254 256 256 259 265 271
243 243 242 240 243 246 247 246 244 251 255 263 268 271 277 283 288 290 292 294 294 292 296 295 302 306 308 308 307 306 306 309 312 313 311 301 293 291 289 282 275 274 272 263 259 259 264 269 273
246 247 246 243 242 246 248 247 246 252 256 262 267 267 267 274 283 287 290 292 288 289 290 287 295 301 303 307 308 309 307 308 311 310 307 299 291 287 283 278 275 269 266 264 263 264 267 268 273
245 247 247 243 241 244 246 246 244 249 254 261 267 267 267 273 278 280 285 290 289 289 287 288 293 298 299 301 304 305 304 307 308 307 307 300 292 285 277 275 273 268 265 266 267 265 269 270 274
243 245 244 243 243 246 245 244 245 249 254 259 262 264 264 271 275 278 282 286 290 292 292 294 292 291 290 293 296 297 299 303 306 306 302 300 297 287 275 275 275 271 266 267 270 270 274 273 277
240 243 243 243 242 248 249 247 248 251 253 259 261 262 264 266 272 276 282 285 287 291 292 295 287 283 288 289 290 292 294 298 299 300 296 294 295 287 277 272 274 272 268 266 271 275 275 278 278
238 240 242 240 242 244 249 250 246 250 255 257 257 262 265 270 267 268 275 283 286 289 287 290 286 288 288 289 292 294 293 292 295 295 293 290 290 285 275 272 271 272 269 266 268 275 280 282 280
237 237 239 239 242 243 245 251 247 247 252 254 255 259 265 268 269 272 279 281 285 284 283 284 281 288 289 290 293 294 293 295 294 291 288 286 284 280 274 271 271 274 270 270 274 277 279 281 279
239 238 238 240 240 239 240 249 248 249 252 255 254 257 264 268 270 275 279 278 283 281 280 280 280 283 284 288 292 291 290 294 295 290 285 282 281 276 273 271 269 270 271 272 275 278 278 279 277
238 240 239 238 238 237 236 244 249 252 255 255 256 256 261 263 271 276 277 278 281 280 278 278 280 282 284 286 289 286 287 288 289 286 283 282 280 278 276 274 270 271 273 273 275 277 279 279 275
239 241 241 242 242 237 236 244 250 255 258 259 259 258 261 263 268 272 273 274 277 277 277 278 279 281 283 284 285 285 284 284 283 282 282 279 277 276 276 276 272 270 272 274 276 277 276 275 274
239 239 241 245 245 242 240 244 248 254 256 258 259 258 259 262 263 267 270 272 273 273 275 277 278 280 282 284 284 284 282 280 281 282 282 277 275 276 277 278 275 271 272 275 277 277 274 272 273
240 238 238 240 241 243 242 244 248 253 256 256 257 260 260 260 262 264 269 273 274 272 274 273 277 278 279 281 282 282 284 282 279 279 279 278 277 276 277 276 276 275 275 275 276 276 272 271 273
238 235 237 241 241 244 246 247 250 253 254 255 255 257 259 258 259 263 267 268 270 272 273 275 276 277 277 279 280 281 282 282 279 276 277 277 277 276 276 274 273 274 275 275 274 273 272 272 273
238 236 237 240 243 245 249 250 251 252 252 254 256 257 259 260 260 263 265 267 269 271 274 273 273 275 276 277 278 278 279 280 278 274 275 277 277 277 276 274 272 272 273 274 272 271 272 273 274
Height
5908 5908 5908 5908 5909 5908 5907 5907 5906 5907 5907 5906 5905 5905 5904 5904 5903 5903 5900 5896 5895 5893 5892 5891 5890 5889 5887 5886 5885 5884 5883 5882 5881 5879 5879 5879 5879 5879 5878 5878 5877 5877 5876 5876 5876 5875 5874 5874 5874
5907 5907 5908 5908 5907 5907 5907 5907 5907 5907 5907 5906 5905 5905 5904 5903 5902 5900 5898 5896 5894 5893 5892 5891 5890 5889 5887 5886 5885 5884 5883 5882 5881 5879 5879 5879 5879 5878 5878 5877 5877 5876 5876 5875 5875 5875 5874 5874 5873
5906 5907 5908 5907 5906 5906 5906 5906 5906 5906 5905 5906 5905 5904 5904 5903 5901 5899 5897 5896 5894 5893 5892 5891 5890 5889 5887 5886 5885 5884 5883 5882 5881 5880 5879 5879 5878 5878 5877 5877 5876 5876 5875 5875 5875 5874 5874 5873 5873
5905 5906 5907 5907 5906 5905 5905 5906 5906 5905 5904 5904 5904 5903 5902 5902 5901 5899 5897 5895 5894 5893 5892 5891 5889 5888 5887 5885 5884 5883 5883 5882 5880 5880 5879 5878 5878 5877 5876 5876 5876 5875 5875 5875 5874 5874 5873 5873 5873
5904 5905 5906 5906 5905 5904 5904 5903 5904 5905 5904 5903 5903 5902 5901 5901 5900 5898 5897 5895 5894 5893 5891 5890 5889 5888 5886 5885 5884 5883 5882 5881 5880 5879 5878 5878 5877 5876 5876 5875 5875 5875 5874 5874 5874 5873 5873 5873 5873
5904 5904 5905 5905 5904 5903 5903 5903 5903 5904 5903 5902 5902 5901 5900 5899 5898 5897 5896 5894 5893 5892 5890 5889 5888 5887 5886 5885 5883 5882 5881 5880 5879 5879 5878 5877 5876 5876 5875 5875 5874 5874 5873 5873 5873 5873 5872 5872 5872
5902 5902 5902 5903 5903 5902 5902 5902 5902 5902 5902 5901 5901 5899 5898 5897 5897 5896 5895 5894 5892 5891 5889 5888 5887 5886 5885 5884 5883 5881 5880 5879 5878 5878 5877 5876 5876 5875 5874 5874 5873 5873 5872 5872 5872 5872 5872 5872 5872
5898 5900 5901 5902 5902 5902 5901 5900 5900 5901 5900 5900 5900 5899 5897 5896 5896 5895 5894 5893 5891 5890 5889 5887 5886 5885 5884 5883 5882 5881 5879 5878 5877 5877 5876 5876 5875 5874 5873 5873 5872 5872 5871 5871 5871 5871 5871 5871 5871
5896 5898 5899 5900 5900 5900 5899 5899 5899 5900 5899 5899 5899 5898 5896 5895 5894 5894 5892 5891 5890 5889 5888 5886 5885 5884 5883 5882 5881 5880 5878 5877 5876 5876 5875 5874 5874 5873 5872 5872 5871 5871 5870 5870 5870 5870 5870 5870 5870
5894 5895 5897 5897 5897 5898 5897 5897 5898 5897 5898 5897 5897 5896 5894 5893 5893 5892 5891 5890 5889 5887 5887 5886 5884 5884 5883 5881 5880 5879 5877 5876 5875 5875 5874 5873 5873 5872 5872 5871 5870 5870 5869 5869 5869 5869 5869 5869 5869
5891 5892 5894 5894 5894 5895 5895 5896 5896 5896 5896 5895 5895 5894 5892 5891 5891 5890 5889 5888 5887 5886 5885 5884 5883 5883 5882 5880 5879 5877 5876 5875 5874 5873 5873 5872 5871 5871 5870 5870 5869 5869 5868 5868 5868 5868 5868 5868 5868
5888 5889 5890 5891 5891 5891 5892 5893 5893 5893 5894 5893 5893 5892 5891 5890 5889 5888 5887 5886 5885 5884 5884 5883 5882 5881 5880 5879 5878 5876 5875 5874 5873 5872 5871 5871 5870 5870 5869 5868 5868 5867 5867 5866 5866 5867 5867 5867 5867
5884 5886 5887 5888 5888 5888 5889 5889 5890 5890 5891 5890 5890 5889 5889 5888 5887 5886 5886 5885 5883 5882 5882 5881 5880 5879 5878 5877 5876 5876 5874 5873 5872 5871 5870 5869 5868 5868 5867 5867 5866 5865 5865 5865 5865 5865 5865 5866 5866
5881 5882 5883 5884 5883 5884 5886 5886 5886 5887 5887 5887 5887 5886 5886 5886 5885 5884 5884 5883 5881 5880 5880 5879 5878 5877 5876 5875 5875 5874 5873 5871 5870 5869 5868 5868 5867 5866 5866 5865 5864 5864 5864 5864 5864 5864 5864 5864 5864
5876 5877 5878 5879 5880 5881 5882 5883 5883 5883 5883 5883 5883 5883 5884 5883 5883 5882 5881 5881 5879 5878 5878 5877 5877 5875 5874 5873 5873 5872 5870 5870 5869 5868 5867 5866 5865 5864 5864 5864 5863 5862 5862 5862 5862 5862 5862 5862 5863
5872 5873 5875 5876 5876 5877 5879 5879 5880 5880 5879 5879 5880 5880 5880 5880 5880 5880 5879 5879 5878 5876 5875 5875 5875 5873 5872 5871 5870 5870 5869 5868 5866 5865 5864 5864 5863 5862 5862 5862 5861 5861 5860 5861 5861 5861 5861 5861 5861
5867 5868 5870 5872 5872 5873 5874 5875 5876 5876 5876 5876 5876 5877 5877 5877 5877 5877 5877 5876 5875 5874 5873 5872 5872 5871 5870 5869 5868 5867 5866 5865 5864 5863 5862 5861 5861 5860 5860 5859 5859 5859 5859 5859 5859 5859 5859 5859 5859
5863 5864 5865 5866 5867 5868 5869 5870 5872 5872 5871 5872 5873 5873 5874 5874 5874 5874 5874 5874 5873 5872 5871 5870 5869 5868 5867 5866 5866 5865 5864 5863 5862 5861 5860 5859 5858 5858 5857 5856 5856 5856 5856 5856 5857 5857 5857 5856 5856
5857 5859 5860 5862 5862 5862 5863 5865 5867 5868 5868 5868 5869 5870 5871 5871 5871 5871 5871 5871 5870 5869 5869 5868 5867 5866 5865 5864 5863 5862 5861 5860 5859 5858 5857 5856 5855 5855 5854 5854 5853 5853 5854 5854 5854 5854 5854 5854 5854
5852 5853 5855 5857 5857 5857 5858 5860 5862 5863 5863 5864 5865 5866 5867 5867 5867 5867 5867 5867 5867 5866 5866 5866 5865 5864 5862 5861 5861 5860 5858 5857 5856 5855 5854 5853 5852 5851 5851 5851 5850 5851 5851 5851 5851 5851 5851 5851 5851
5846 5848 5850 5852 5852 5852 5853 5854 5856 5857 5858 5859 5860 5861 5863 5863 5863 5863 5863 5863 5863 5862 5862 5862 5861 5860 5859 5858 5857 5857 5855 5854 5854 5853 5851 5850 5849 5848 5848 5847 5848 5848 5848 5848 5848 5848 5848 5848 5848
5840 5843 5845 5846 5847 5847 5849 5849 5851 5852 5853 5854 5855 5857 5858 5858 5859 5859 5860 5860 5859 5859 5859 5858 5857 5856 5855 5854 5854 5853 5852 5851 5850 5849 5848 5847 5846 5845 5844 5844 5844 5844 5844 5844 5845 5845 5845 5845 5844
5835 5837 5839 5841 5842 5843 5843 5844 5846 5847 5848 5849 5851 5851 5852 5853 5854 5855 5856 5856 5856 5855 5854 5854 5854 5853 5852 5851 5850 5849 5848 5847 5846 5845 5844 5843 5842 5841 5841 5841 5841 5841 5841 5841 5841 5841 5841 5841 5841
5829 5831 5833 5834 5835 5836 5839 5839 5839 5841 5843 5845 5846 5846 5847 5849 5849 5850 5852 5852 5852 5851 5851 5850 5850 5849 5848 5847 5846 5846 5845 5843 5842 5841 5840 5839 5838 5838 5837 5837 5837 5837 5837 5837 5837 5837 5837 5836 5836
5822 5825 5826 5827 5828 5830 5834 5833 5834 5836 5838 5840 5841 5842 5843 5844 5844 5845 5846 5846 5846 5846 5846 5846 5846 5845 5843 5842 5842 5841 5840 5839 5838 5837 5836 5835 5834 5834 5833 5833 5833 5833 5833 5833 5833 5832 5832 5832 5831
5816 5818 5820 5821 5822 5825 5827 5827 5830 5831 5833 5834 5835 5837 5838 5839 5840 5840 5841 5841 5841 5841 5841 5841 5840 5840 5839 5838 5837 5836 5835 5834 5833 5832 5832 5831 5830 5829 5829 5829 5828 5828 5828 5828 5828 5828 5827 5827 5827
5809 5811 5814 5816 5817 5819 5820 5822 5824 5826 5827 5828 5829 5831 5832 5833 5833 5834 5835 5835 5835 5835 5835 5835 5835 5834 5833 5833 5832 5831 5830 5829 5828 5827 5827 5826 5825 5825 5825 5824 5824 5823 5823 5823 5823 5823 5822 5822 5822
5803 5805 5808 5809 5810 5812 5814 5816 5819 5820 5821 5822 5823 5824 5825 5826 5827 5828 5828 5828 5829 5829 5829 5829 5829 5828 5827 5827 5826 5825 5824 5823 5822 5822 5822 5821 5820 5820 5820 5819 5819 5819 5818 5818 5817 5817 5817 5816 5816
5797 5799 5800 5802 5804 5806 5808 5812 5813 5815 5815 5816 5817 5818 5819 5819 5820 5821 5821 5822 5822 5822 5822 5822 5822 5821 5821 5821 5820 5820 5819 5818 5817 5816 5816 5816 5815 5815 5815 5814 5814 5813 5813 5812 5811 5811 5811 5810 5810
5789 5791 5793 5796 5798 5799 5801 5806 5806 5808 5808 5809 5810 5811 5811 5812 5813 5815 5815 5815 5815 5816 5816 5815 5815 5815 5815 5814 5813 5813 5813 5811 5811 5811 5810 5810 5809 5809 5809 5808 5808 5807 5807 5806 5806 5805 5805 5804 5804